| time (UTC) | temp C | wind direction | speed KPH | gust KPH | rain 1hr cm | rain 24hr cm | rain mn cm | humidity % | barometer mb |
| 20260906104525 | 22 | 74 | 1.6 | 3.2 | 0.00 | 0.97 | 0.00 | 96 | 1013.5 |
| 20260906104008 | 22 | 77 | 1.6 | 3.2 | 0.00 | 0.97 | 0.00 | 96 | 1013.4 |
| 20260906103509 | 22 | 69 | 1.6 | 3.2 | 0.00 | 0.97 | 0.00 | 96 | 1013.4 |
| 20260906103024 | 22 | 82 | 1.6 | 3.2 | 0.00 | 0.97 | 0.00 | 96 | 1013.3 |
| 20260906102512 | 22 | 88 | 0.0 | 4.8 | 0.00 | 0.97 | 0.00 | 96 | 1013.4 |
| 20260906102012 | 21 | 73 | 1.6 | 4.8 | 0.00 | 0.97 | 0.00 | 96 | 1013.3 |
| 20260906101530 | 21 | 72 | 1.6 | 1.6 | 0.00 | 0.97 | 0.00 | 96 | 1013.3 |
| 20260906101013 | 21 | 63 | 0.0 | 3.2 | 0.00 | 0.97 | 0.00 | 96 | 1013.2 |
| 20260906100517 | 21 | 67 | 1.6 | 3.2 | 0.00 | 0.97 | 0.00 | 96 | 1013.3 |
| 20260906100030 | 21 | 63 | 0.0 | 3.2 | 0.00 | 0.97 | 0.00 | 96 | 1013.2 |
| 20260906095503 | 21 | 40 | 0.0 | 3.2 | 0.00 | 0.97 | 0.00 | 96 | 1013.2 |
| 20260906095006 | 21 | 40 | 0.0 | 3.2 | 0.00 | 0.97 | 0.00 | 96 | 1013.2 |
| 20260906094517 | 21 | 40 | 0.0 | 0.0 | 0.00 | 0.97 | 0.00 | 96 | 1013.2 |
| 20260906094006 | 21 | 40 | 0.0 | 0.0 | 0.00 | 0.97 | 0.00 | 96 | 1013.1 |
| 20260906093507 | 21 | 40 | 0.0 | 0.0 | 0.00 | 0.97 | 0.00 | 96 | 1013.1 |
| 20260906093021 | 21 | 40 | 0.0 | 3.2 | 0.00 | 0.97 | 0.00 | 96 | 1013.1 |
| 20260906092510 | 21 | 40 | 0.0 | 0.0 | 0.00 | 0.97 | 0.00 | 96 | 1013.1 |
| 20260906092013 | 21 | 40 | 0.0 | 0.0 | 0.00 | 0.97 | 0.00 | 96 | 1013.0 |
| 20260906091533 | 21 | 40 | 0.0 | 0.0 | 0.00 | 0.97 | 0.00 | 96 | 1013.0 |
| 20260906091013 | 21 | 40 | 0.0 | 1.6 | 0.00 | 0.97 | 0.00 | 96 | 1013.0 |
| 20260906090515 | 21 | 40 | 0.0 | 1.6 | 0.00 | 0.97 | 0.00 | 96 | 1012.8 |
| 20260906090032 | 21 | 40 | 0.0 | 0.0 | 0.00 | 0.97 | 0.00 | 96 | 1012.8 |
| 20260906085519 | 21 | 40 | 0.0 | 0.0 | 0.00 | 0.97 | 0.00 | 95 | 1012.9 |
| 20260906085016 | 21 | 40 | 0.0 | 0.0 | 0.00 | 0.97 | 0.00 | 95 | 1012.9 |
| 20260906084510 | 21 | 40 | 0.0 | 0.0 | 0.00 | 0.97 | 0.00 | 95 | 1012.9 |
| 20260906084009 | 21 | 40 | 0.0 | 0.0 | 0.00 | 0.97 | 0.00 | 95 | 1012.9 |
| 20260906083506 | 21 | 40 | 0.0 | 0.0 | 0.00 | 0.97 | 0.00 | 96 | 1012.9 |
| 20260906083016 | 21 | 40 | 0.0 | 0.0 | 0.00 | 0.97 | 0.00 | 96 | 1013.0 |
| 20260906082511 | 21 | 40 | 0.0 | 0.0 | 0.00 | 0.97 | 0.00 | 96 | 1013.0 |
| 20260906082009 | 21 | 40 | 0.0 | 0.0 | 0.00 | 0.97 | 0.00 | 96 | 1012.9 |
| 20260906081538 | 21 | 40 | 0.0 | 0.0 | 0.00 | 0.97 | 0.00 | 96 | 1012.9 |
| 20260906081011 | 21 | 40 | 0.0 | 1.6 | 0.00 | 0.97 | 0.00 | 95 | 1012.9 |
| 20260906080510 | 21 | 40 | 0.0 | 3.2 | 0.00 | 0.97 | 0.00 | 95 | 1012.9 |
| 20260906080031 | 21 | 40 | 0.0 | 3.2 | 0.00 | 0.97 | 0.00 | 95 | 1012.9 |
| 20260906075516 | 21 | 40 | 0.0 | 0.0 | 0.00 | 0.97 | 0.00 | 95 | 1012.7 |
| 20260906075014 | 22 | 40 | 0.0 | 0.0 | 0.00 | 0.97 | 0.00 | 95 | 1012.7 |
| 20260906074532 | 22 | 40 | 0.0 | 0.0 | 0.00 | 0.97 | 0.00 | 95 | 1012.7 |
| 20260906074016 | 22 | 40 | 0.0 | 1.6 | 0.00 | 0.97 | 0.00 | 96 | 1012.8 |
| 20260906073506 | 22 | 40 | 1.6 | 3.2 | 0.00 | 0.97 | 0.00 | 96 | 1012.8 |
| 20260906073019 | 22 | 40 | 0.0 | 3.2 | 0.00 | 0.97 | 0.00 | 95 | 1012.8 |
| 20260906072506 | 22 | 40 | 0.0 | 0.0 | 0.00 | 0.97 | 0.00 | 95 | 1012.8 |
| 20260906072007 | 22 | 40 | 0.0 | 0.0 | 0.00 | 0.97 | 0.00 | 95 | 1012.8 |
| 20260906071519 | 22 | 40 | 0.0 | 0.0 | 0.00 | 0.97 | 0.00 | 95 | 1012.9 |
| 20260906071009 | 22 | 40 | 0.0 | 3.2 | 0.00 | 0.97 | 0.00 | 95 | 1012.9 |
| 20260906070511 | 22 | 40 | 0.0 | 3.2 | 0.00 | 0.97 | 0.00 | 95 | 1012.9 |
| 20260906070028 | 22 | 40 | 0.0 | 3.2 | 0.00 | 0.97 | 0.00 | 95 | 1012.9 |
| 20260906065513 | 22 | 40 | 0.0 | 3.2 | 0.00 | 0.97 | 0.00 | 95 | 1013.1 |
| 20260906065017 | 22 | 40 | 0.0 | 3.2 | 0.00 | 0.97 | 0.00 | 95 | 1013.1 |
| 20260906064531 | 22 | 40 | 0.0 | 3.2 | 0.00 | 0.97 | 0.00 | 95 | 1013.1 |
| 20260906064016 | 22 | 40 | 0.0 | 3.2 | 0.00 | 0.97 | 0.00 | 95 | 1013.1 |
| 20260906063516 | 22 | 151 | 1.6 | 3.2 | 0.00 | 0.97 | 0.00 | 95 | 1013.1 |
| 20260906063032 | 22 | 84 | 0.0 | 3.2 | 0.00 | 0.97 | 0.00 | 95 | 1013.2 |
| 20260906062507 | 22 | 71 | 0.0 | 3.2 | 0.00 | 0.97 | 0.00 | 95 | 1013.2 |
| 20260906062005 | 22 | 55 | 0.0 | 3.2 | 0.00 | 0.97 | 0.00 | 95 | 1013.3 |
| 20260906061519 | 22 | 19 | 1.6 | 6.4 | 0.00 | 0.97 | 0.00 | 95 | 1013.4 |
| 20260906061013 | 22 | 47 | 0.0 | 6.4 | 0.00 | 0.97 | 0.00 | 95 | 1013.4 |
| 20260906060509 | 22 | 63 | 1.6 | 4.8 | 0.00 | 0.97 | 0.00 | 95 | 1013.3 |
| 20260906060029 | 22 | 32 | 1.6 | 4.8 | 0.00 | 0.97 | 0.00 | 95 | 1013.3 |
| 20260906055511 | 22 | 34 | 1.6 | 4.8 | 0.00 | 0.97 | 0.00 | 95 | 1013.3 |
| 20260906055015 | 22 | 31 | 3.2 | 3.2 | 0.00 | 0.97 | 0.00 | 95 | 1013.2 |
| 20260906054534 | 22 | 31 | 1.6 | 3.2 | 0.00 | 0.97 | 0.00 | 95 | 1013.1 |
| 20260906054016 | 22 | 31 | 0.0 | 3.2 | 0.00 | 0.97 | 0.00 | 95 | 1013.1 |
| 20260906053514 | 22 | 31 | 0.0 | 3.2 | 0.00 | 0.97 | 0.00 | 95 | 1013.1 |
| 20260906053034 | 22 | 31 | 0.0 | 1.6 | 0.00 | 0.97 | 0.00 | 95 | 1013.2 |
| 20260906052521 | 22 | 31 | 0.0 | 3.2 | 0.00 | 0.97 | 0.00 | 95 | 1013.3 |
| 20260906052019 | 22 | 31 | 1.6 | 3.2 | 0.00 | 0.97 | 0.00 | 95 | 1013.3 |
| 20260906051532 | 22 | 31 | 0.0 | 3.2 | 0.00 | 0.97 | 0.00 | 94 | 1013.2 |
| 20260906051008 | 22 | 31 | 0.0 | 3.2 | 0.00 | 0.97 | 0.00 | 94 | 1013.2 |
| 20260906050507 | 22 | 31 | 0.0 | 3.2 | 0.00 | 0.97 | 0.00 | 94 | 1013.3 |
| 20260906050032 | 22 | 31 | 0.0 | 3.2 | 0.00 | 0.97 | 0.00 | 94 | 1013.3 |
| 20260906045510 | 22 | 31 | 1.6 | 3.2 | 0.00 | 0.97 | 0.97 | 94 | 1013.3 |
| 20260906045010 | 22 | 31 | 0.0 | 3.2 | 0.00 | 0.97 | 0.97 | 94 | 1013.3 |
| 20260906044535 | 22 | 31 | 0.0 | 3.2 | 0.00 | 0.97 | 0.97 | 94 | 1013.3 |
| 20260906044018 | 22 | 31 | 0.0 | 4.8 | 0.00 | 0.97 | 0.97 | 94 | 1013.3 |
| 20260906043514 | 23 | 31 | 0.0 | 4.8 | 0.00 | 0.97 | 0.97 | 94 | 1013.3 |
| 20260906043030 | 23 | 13 | 3.2 | 4.8 | 0.00 | 0.97 | 0.97 | 94 | 1013.2 |
| 20260906042513 | 23 | 280 | 0.0 | 3.2 | 0.00 | 0.97 | 0.97 | 94 | 1013.3 |
| 20260906042016 | 23 | 280 | 1.6 | 8.0 | 0.00 | 0.97 | 0.97 | 95 | 1013.1 |
| 20260906041536 | 23 | 219 | 1.6 | 8.0 | 0.00 | 0.97 | 0.97 | 95 | 1013.1 |
| 20260906041018 | 22 | 169 | 0.0 | 3.2 | 0.00 | 0.97 | 0.97 | 95 | 1013.1 |
| 20260906040515 | 22 | 169 | 0.0 | 4.8 | 0.00 | 0.97 | 0.97 | 95 | 1013.2 |
| 20260906040028 | 22 | 233 | 1.6 | 4.8 | 0.00 | 0.97 | 0.97 | 95 | 1013.2 |
| 20260906035510 | 22 | 223 | 1.6 | 3.2 | 0.00 | 0.97 | 0.97 | 94 | 1013.3 |
| 20260906035010 | 22 | 252 | 0.0 | 3.2 | 0.00 | 0.97 | 0.97 | 94 | 1013.1 |
| 20260906034529 | 22 | 252 | 0.0 | 3.2 | 0.00 | 0.97 | 0.97 | 94 | 1013.0 |
| 20260906034013 | 22 | 252 | 0.0 | 3.2 | 0.00 | 0.97 | 0.97 | 94 | 1012.9 |
| 20260906033511 | 22 | 252 | 0.0 | 3.2 | 0.00 | 0.97 | 0.97 | 94 | 1013.0 |
| 20260906033040 | 22 | 252 | 3.2 | 4.8 | 0.00 | 0.97 | 0.97 | 95 | 1012.9 |
| 20260906032513 | 22 | 244 | 3.2 | 4.8 | 0.00 | 0.97 | 0.97 | 94 | 1012.8 |
| 20260906032015 | 22 | 306 | 1.6 | 3.2 | 0.00 | 0.97 | 0.97 | 94 | 1012.8 |
| 20260906031532 | 22 | 88 | 0.0 | 1.6 | 0.00 | 0.97 | 0.97 | 94 | 1012.8 |
| 20260906031018 | 22 | 88 | 0.0 | 1.6 | 0.00 | 0.97 | 0.97 | 94 | 1012.7 |
| 20260906030516 | 22 | 88 | 0.0 | 3.2 | 0.00 | 0.97 | 0.97 | 94 | 1012.6 |
| 20260906030035 | 22 | 88 | 0.0 | 4.8 | 0.00 | 0.97 | 0.97 | 94 | 1012.7 |
| 20260906025519 | 22 | 88 | 0.0 | 4.8 | 0.00 | 0.97 | 0.97 | 94 | 1012.6 |
| 20260906025010 | 22 | 82 | 1.6 | 3.2 | 0.00 | 0.97 | 0.97 | 94 | 1012.5 |
| 20260906024526 | 22 | 74 | 1.6 | 3.2 | 0.00 | 0.97 | 0.97 | 94 | 1012.5 |
| 20260906024012 | 22 | 92 | 1.6 | 3.2 | 0.00 | 0.97 | 0.97 | 93 | 1012.4 |
| 20260906023503 | 22 | 58 | 1.6 | 3.2 | 0.00 | 0.97 | 0.97 | 93 | 1012.3 |
| 20260906023004 | 22 | 58 | 1.6 | 3.2 | 0.00 | 0.97 | 0.97 | 93 | 1012.2 |
| 20260906022503 | 22 | 124 | 0.0 | 3.2 | 0.00 | 0.97 | 0.97 | 93 | 1012.1 |
| 20260906022003 | 22 | 124 | 0.0 | 3.2 | 0.00 | 0.97 | 0.97 | 93 | 1012.0 |
| 20260906021505 | 22 | 124 | 1.6 | 3.2 | 0.00 | 0.97 | 0.97 | 93 | 1011.9 |
| 20260906021002 | 22 | 85 | 1.6 | 3.2 | 0.00 | 0.97 | 0.97 | 93 | 1011.7 |
| 20260906020504 | 22 | 80 | 0.0 | 4.8 | 0.00 | 0.97 | 0.97 | 92 | 1011.7 |
| 20260906020005 | 23 | 80 | 0.0 | 6.4 | 0.00 | 0.97 | 0.97 | 92 | 1011.7 |
| 20260906015504 | 23 | 70 | 3.2 | 6.4 | 0.00 | 0.97 | 0.97 | 92 | 1011.7 |
| 20260906015004 | 23 | 44 | 3.2 | 4.8 | 0.00 | 0.97 | 0.97 | 91 | 1011.7 |
| 20260906014506 | 23 | 54 | 1.6 | 6.4 | 0.00 | 0.97 | 0.97 | 91 | 1011.7 |
| 20260906014003 | 23 | 355 | 1.6 | 6.4 | 0.00 | 0.97 | 0.97 | 91 | 1011.8 |
| 20260906013503 | 23 | 16 | 4.8 | 6.4 | 0.00 | 0.97 | 0.97 | 90 | 1011.8 |
| 20260906013010 | 23 | 343 | 0.0 | 8.0 | 0.03 | 0.97 | 0.97 | 90 | 1011.6 |
| 20260906012507 | 23 | 161 | 3.2 | 8.0 | 0.08 | 0.97 | 0.97 | 90 | 1011.7 |
| 20260906012007 | 23 | 189 | 4.8 | 6.4 | 0.66 | 0.97 | 0.97 | 91 | 1011.7 |
| 20260906011503 | 23 | 354 | 1.6 | 4.8 | 0.97 | 0.97 | 0.97 | 92 | 1011.9 |
| 20260906011002 | 22 | 132 | 3.2 | 4.8 | 0.97 | 0.97 | 0.97 | 92 | 1012.1 |
| 20260906010503 | 22 | 25 | 1.6 | 8.0 | 0.97 | 0.97 | 0.97 | 91 | 1012.3 |
| 20260906010006 | 22 | 170 | 1.6 | 9.7 | 0.97 | 0.97 | 0.97 | 90 | 1012.8 |
| 20260906005503 | 22 | 85 | 1.6 | 9.7 | 0.97 | 0.97 | 0.97 | 89 | 1013.3 |
| 20260906005004 | 22 | 198 | 3.2 | 11.3 | 0.97 | 0.97 | 0.97 | 86 | 1013.2 |
| 20260906004508 | 22 | 77 | 4.8 | 11.3 | 0.97 | 0.97 | 0.97 | 83 | 1012.8 |
| 20260906004002 | 23 | 53 | 3.2 | 12.9 | 0.97 | 0.97 | 0.97 | 79 | 1012.3 |
| 20260906003502 | 23 | 138 | 3.2 | 25.7 | 0.97 | 0.97 | 0.97 | 78 | 1011.9 |
| 20260906003007 | 23 | 114 | 11.3 | 48.3 | 0.94 | 0.94 | 0.94 | 73 | 1011.5 |
| 20260906002505 | 25 | 213 | 22.5 | 48.3 | 0.89 | 0.89 | 0.89 | 75 | 1012.3 |
| 20260906002003 | 27 | 180 | 12.9 | 32.2 | 0.30 | 0.30 | 0.30 | 69 | 1012.8 |
| 20260906001504 | 28 | 48 | 14.5 | 32.2 | 0.00 | 0.00 | 0.00 | 69 | 1012.8 |
| 20260906001003 | 28 | 9 | 8.0 | 11.3 | 0.00 | 0.00 | 0.00 | 69 | 1012.2 |
| 20260906000503 | 28 | 7 | 3.2 | 6.4 | 0.00 | 0.00 | 0.00 | 71 | 1011.4 |
| 20260906000006 | 29 | 168 | 0.0 | 3.2 | 0.00 | 0.00 | 0.00 | 71 | 1011.1 |
| 20260905235504 | 30 | 168 | 1.6 | 3.2 | 0.00 | 0.00 | 0.00 | 67 | 1011.4 |
| 20260905235006 | 30 | 115 | 1.6 | 11.3 | 0.00 | 0.00 | 0.00 | 67 | 1011.9 |
| 20260905234507 | 30 | 219 | 0.0 | 12.9 | 0.00 | 0.00 | 0.00 | 61 | 1012.0 |
| 20260905234004 | 30 | 201 | 6.4 | 12.9 | 0.00 | 0.00 | 0.00 | 60 | 1011.9 |
| 20260905233504 | 30 | 210 | 8.0 | 11.3 | 0.00 | 0.00 | 0.00 | 61 | 1012.1 |
| 20260905233004 | 31 | 202 | 3.2 | 6.4 | 0.00 | 0.00 | 0.00 | 62 | 1012.0 |
| 20260905232504 | 31 | 151 | 0.0 | 3.2 | 0.00 | 0.00 | 0.00 | 66 | 1011.6 |
| 20260905232004 | 31 | 138 | 0.0 | 3.2 | 0.00 | 0.00 | 0.00 | 62 | 1011.3 |
| 20260905231505 | 31 | 170 | 1.6 | 3.2 | 0.00 | 0.00 | 0.00 | 65 | 1011.1 |
| 20260905231005 | 32 | 189 | 1.6 | 3.2 | 0.00 | 0.00 | 0.00 | 65 | 1011.1 |
| 20260905230506 | 32 | 188 | 1.6 | 3.2 | 0.00 | 0.00 | 0.00 | 63 | 1011.0 |
| 20260905230007 | 32 | 162 | 0.0 | 4.8 | 0.00 | 0.00 | 0.00 | 64 | 1010.9 |
| 20260905225503 | 32 | 162 | 0.0 | 9.7 | 0.00 | 0.00 | 0.00 | 56 | 1010.9 |
| 20260905225004 | 33 | 164 | 3.2 | 9.7 | 0.00 | 0.00 | 0.00 | 56 | 1010.9 |
| 20260905224506 | 33 | 219 | 4.8 | 9.7 | 0.00 | 0.00 | 0.00 | 62 | 1010.9 |
| 20260905224004 | 33 | 221 | 1.6 | 8.0 | 0.00 | 0.00 | 0.00 | 60 | 1010.8 |
| 20260905223503 | 34 | 223 | 3.2 | 6.4 | 0.00 | 0.00 | 0.00 | 62 | 1010.8 |
| 20260905223008 | 34 | 138 | 1.6 | 8.0 | 0.00 | 0.00 | 0.00 | 63 | 1010.7 |
| 20260905222505 | 34 | 196 | 1.6 | 9.7 | 0.00 | 0.00 | 0.00 | 59 | 1010.7 |
| 20260905222004 | 35 | 194 | 4.8 | 9.7 | 0.00 | 0.00 | 0.00 | 67 | 1010.8 |
| 20260905221508 | 35 | 128 | 1.6 | 4.8 | 0.00 | 0.00 | 0.00 | 63 | 1010.9 |
| 20260905221003 | 35 | 107 | 1.6 | 6.4 | 0.00 | 0.00 | 0.00 | 60 | 1010.8 |
| 20260905220506 | 35 | 46 | 4.8 | 6.4 | 0.00 | 0.00 | 0.00 | 61 | 1010.8 |
| 20260905220008 | 35 | 53 | 3.2 | 6.4 | 0.00 | 0.00 | 0.00 | 61 | 1010.8 |
| 20260905215505 | 35 | 56 | 3.2 | 6.4 | 0.00 | 0.00 | 0.00 | 63 | 1010.8 |
| 20260905215004 | 35 | 76 | 3.2 | 6.4 | 0.00 | 0.00 | 0.00 | 62 | 1010.9 |
| 20260905214508 | 35 | 61 | 3.2 | 6.4 | 0.00 | 0.00 | 0.00 | 63 | 1010.9 |
| 20260905214004 | 35 | 78 | 4.8 | 9.7 | 0.00 | 0.00 | 0.00 | 63 | 1010.9 |
| 20260905213504 | 35 | 63 | 4.8 | 9.7 | 0.00 | 0.00 | 0.00 | 64 | 1010.9 |
| 20260905213007 | 34 | 112 | 4.8 | 9.7 | 0.00 | 0.00 | 0.00 | 62 | 1010.9 |
| 20260905212503 | 34 | 83 | 4.8 | 9.7 | 0.00 | 0.00 | 0.00 | 67 | 1010.9 |
| 20260905212003 | 34 | 86 | 1.6 | 11.3 | 0.00 | 0.00 | 0.00 | 66 | 1010.9 |
| 20260905211506 | 35 | 78 | 3.2 | 11.3 | 0.00 | 0.00 | 0.00 | 63 | 1011.0 |
| 20260905211004 | 35 | 74 | 3.2 | 4.8 | 0.00 | 0.00 | 0.00 | 64 | 1011.1 |
| 20260905210506 | 35 | 53 | 0.0 | 3.2 | 0.00 | 0.00 | 0.00 | 61 | 1011.1 |
| 20260905210010 | 35 | 53 | 0.0 | 3.2 | 0.00 | 0.00 | 0.00 | 60 | 1011.2 |
| 20260905205505 | 35 | 45 | 0.0 | 3.2 | 0.00 | 0.00 | 0.00 | 60 | 1011.3 |
| 20260905205004 | 35 | 99 | 0.0 | 3.2 | 0.00 | 0.00 | 0.00 | 63 | 1011.4 |
| 20260905204516 | 35 | 138 | 0.0 | 3.2 | 0.00 | 0.00 | 0.00 | 66 | 1011.3 |
| 20260905204005 | 34 | 85 | 0.0 | 9.7 | 0.00 | 0.00 | 0.00 | 60 | 1011.3 |
| 20260905203506 | 35 | 85 | 1.6 | 9.7 | 0.00 | 0.00 | 0.00 | 62 | 1011.4 |
| 20260905203010 | 35 | 67 | 3.2 | 6.4 | 0.00 | 0.00 | 0.00 | 58 | 1011.5 |
| 20260905202506 | 35 | 73 | 3.2 | 9.7 | 0.00 | 0.00 | 0.00 | 57 | 1011.5 |
| 20260905202006 | 35 | 84 | 0.0 | 9.7 | 0.00 | 0.00 | 0.00 | 59 | 1011.6 |
| 20260905201508 | 35 | 86 | 4.8 | 8.0 | 0.00 | 0.00 | 0.00 | 60 | 1011.6 |
| 20260905201007 | 35 | 55 | 1.6 | 4.8 | 0.00 | 0.00 | 0.00 | 62 | 1011.6 |
| 20260905200503 | 35 | 62 | 1.6 | 3.2 | 0.00 | 0.00 | 0.00 | 65 | 1011.8 |
| 20260905200009 | 34 | 49 | 1.6 | 3.2 | 0.00 | 0.00 | 0.00 | 66 | 1011.8 |
| 20260905195504 | 33 | 49 | 1.6 | 1.6 | 0.00 | 0.00 | 0.00 | 70 | 1011.8 |
| 20260905195007 | 33 | 73 | 1.6 | 3.2 | 0.00 | 0.00 | 0.00 | 73 | 1011.9 |
| 20260905194513 | 33 | 73 | 1.6 | 3.2 | 0.00 | 0.00 | 0.00 | 66 | 1012.1 |
| 20260905194004 | 33 | 80 | 1.6 | 3.2 | 0.00 | 0.00 | 0.00 | 59 | 1012.2 |
| 20260905193505 | 33 | 267 | 0.0 | 3.2 | 0.00 | 0.00 | 0.00 | 65 | 1012.3 |
| 20260905193012 | 34 | 267 | 0.0 | 3.2 | 0.00 | 0.00 | 0.00 | 64 | 1012.4 |
| 20260905192506 | 34 | 267 | 1.6 | 4.8 | 0.00 | 0.00 | 0.00 | 56 | 1012.5 |
| 20260905192006 | 34 | 100 | 0.0 | 4.8 | 0.00 | 0.00 | 0.00 | 57 | 1012.5 |
| 20260905191512 | 35 | 79 | 1.6 | 3.2 | 0.00 | 0.00 | 0.00 | 61 | 1012.6 |
| 20260905191010 | 35 | 89 | 1.6 | 4.8 | 0.00 | 0.00 | 0.00 | 62 | 1012.8 |
| 20260905190508 | 35 | 41 | 1.6 | 4.8 | 0.00 | 0.00 | 0.00 | 57 | 1012.9 |
| 20260905190013 | 35 | 176 | 1.6 | 6.4 | 0.00 | 0.00 | 0.00 | 56 | 1013.0 |
| 20260905185505 | 35 | 356 | 3.2 | 6.4 | 0.00 | 0.00 | 0.00 | 59 | 1013.0 |
| 20260905185006 | 35 | 69 | 1.6 | 11.3 | 0.00 | 0.00 | 0.00 | 56 | 1012.9 |
| 20260905184513 | 35 | 54 | 4.8 | 11.3 | 0.00 | 0.00 | 0.00 | 56 | 1013.0 |
| 20260905184004 | 35 | 103 | 1.6 | 8.0 | 0.00 | 0.00 | 0.00 | 56 | 1013.2 |
| 20260905183504 | 35 | 89 | 1.6 | 8.0 | 0.00 | 0.00 | 0.00 | 58 | 1013.3 |
| 20260905183014 | 36 | 186 | 1.6 | 8.0 | 0.00 | 0.00 | 0.00 | 58 | 1013.2 |
| 20260905182505 | 35 | 180 | 1.6 | 6.4 | 0.00 | 0.00 | 0.00 | 61 | 1013.3 |
| 20260905182007 | 35 | 90 | 1.6 | 6.4 | 0.00 | 0.00 | 0.00 | 58 | 1013.4 |
| 20260905181515 | 35 | 23 | 3.2 | 4.8 | 0.00 | 0.00 | 0.00 | 59 | 1013.5 |
| 20260905181007 | 35 | 94 | 1.6 | 6.4 | 0.00 | 0.00 | 0.00 | 58 | 1013.5 |
| 20260905180504 | 35 | 161 | 4.8 | 9.7 | 0.00 | 0.00 | 0.00 | 57 | 1013.5 |
| 20260905180015 | 35 | 138 | 1.6 | 11.3 | 0.00 | 0.00 | 0.00 | 60 | 1013.7 |
| 20260905175508 | 35 | 60 | 4.8 | 11.3 | 0.00 | 0.00 | 0.00 | 59 | 1013.7 |
| 20260905175007 | 35 | 24 | 1.6 | 4.8 | 0.00 | 0.00 | 0.00 | 59 | 1013.7 |
| 20260905174512 | 35 | 38 | 0.0 | 8.0 | 0.00 | 0.00 | 0.00 | 60 | 1013.9 |
| 20260905174012 | 35 | 56 | 1.6 | 8.0 | 0.00 | 0.00 | 0.00 | 61 | 1014.0 |
| 20260905173504 | 35 | 69 | 3.2 | 9.7 | 0.00 | 0.00 | 0.00 | 63 | 1014.1 |
| 20260905173007 | 35 | 80 | 3.2 | 9.7 | 0.00 | 0.00 | 0.00 | 63 | 1014.2 |
| 20260905172506 | 34 | 86 | 3.2 | 6.4 | 0.00 | 0.00 | 0.00 | 58 | 1014.2 |
| 20260905172006 | 34 | 45 | 3.2 | 6.4 | 0.00 | 0.00 | 0.00 | 59 | 1014.2 |
| 20260905171519 | 33 | 227 | 1.6 | 9.7 | 0.00 | 0.00 | 0.00 | 61 | 1014.2 |
| 20260905171007 | 34 | 151 | 6.4 | 9.7 | 0.00 | 0.00 | 0.00 | 60 | 1014.3 |
| 20260905170505 | 33 | 53 | 3.2 | 11.3 | 0.00 | 0.00 | 0.00 | 63 | 1014.3 |
| 20260905170016 | 34 | 61 | 6.4 | 11.3 | 0.00 | 0.00 | 0.00 | 60 | 1014.4 |
| 20260905165507 | 33 | 79 | 6.4 | 9.7 | 0.00 | 0.00 | 0.00 | 63 | 1014.5 |
| 20260905165012 | 33 | 192 | 3.2 | 6.4 | 0.00 | 0.00 | 0.00 | 60 | 1014.5 |
| 20260905164514 | 33 | 69 | 4.8 | 6.4 | 0.00 | 0.00 | 0.00 | 61 | 1014.5 |
| 20260905164008 | 33 | 73 | 3.2 | 4.8 | 0.00 | 0.00 | 0.00 | 61 | 1014.6 |
| 20260905163508 | 33 | 200 | 1.6 | 12.9 | 0.00 | 0.00 | 0.00 | 63 | 1014.7 |
| 20260905163017 | 33 | 27 | 3.2 | 16.1 | 0.00 | 0.00 | 0.00 | 61 | 1014.9 |
| 20260905162504 | 33 | 71 | 9.7 | 16.1 | 0.00 | 0.00 | 0.00 | 63 | 1015.0 |
| 20260905162005 | 33 | 67 | 1.6 | 4.8 | 0.00 | 0.00 | 0.00 | 62 | 1015.0 |
| 20260905161509 | 32 | 126 | 0.0 | 11.3 | 0.00 | 0.00 | 0.00 | 61 | 1015.0 |
| 20260905161005 | 32 | 94 | 3.2 | 11.3 | 0.00 | 0.00 | 0.00 | 62 | 1015.1 |
| 20260905160504 | 32 | 77 | 4.8 | 11.3 | 0.00 | 0.00 | 0.00 | 63 | 1015.1 |
| 20260905160023 | 32 | 65 | 4.8 | 11.3 | 0.00 | 0.00 | 0.00 | 66 | 1015.1 |
| 20260905155509 | 32 | 134 | 1.6 | 9.7 | 0.00 | 0.00 | 0.00 | 67 | 1015.1 |
| 20260905155011 | 32 | 164 | 0.0 | 16.1 | 0.00 | 0.00 | 0.00 | 67 | 1015.1 |
| 20260905154518 | 31 | 72 | 6.4 | 16.1 | 0.00 | 0.00 | 0.00 | 70 | 1015.2 |
| 20260905154011 | 31 | 93 | 6.4 | 11.3 | 0.00 | 0.00 | 0.00 | 71 | 1015.3 |
| 20260905153510 | 31 | 76 | 6.4 | 11.3 | 0.00 | 0.00 | 0.00 | 69 | 1015.2 |
| 20260905153021 | 31 | 48 | 3.2 | 19.3 | 0.00 | 0.00 | 0.00 | 67 | 1015.1 |
| 20260905152510 | 31 | 90 | 4.8 | 19.3 | 0.00 | 0.00 | 0.00 | 72 | 1015.2 |
| 20260905152008 | 31 | 72 | 6.4 | 22.5 | 0.00 | 0.00 | 0.00 | 73 | 1015.2 |
| 20260905151509 | 30 | 116 | 4.8 | 22.5 | 0.00 | 0.00 | 0.00 | 73 | 1015.2 |
| 20260905151004 | 31 | 67 | 9.7 | 20.9 | 0.00 | 0.00 | 0.00 | 72 | 1015.2 |
| 20260905150507 | 31 | 74 | 3.2 | 8.0 | 0.00 | 0.00 | 0.00 | 70 | 1015.2 |
| 20260905150014 | 31 | 355 | 3.2 | 8.0 | 0.00 | 0.00 | 0.00 | 68 | 1015.1 |
| 20260905145506 | 31 | 305 | 4.8 | 6.4 | 0.00 | 0.00 | 0.00 | 66 | 1015.0 |
| 20260905145011 | 31 | 170 | 0.0 | 3.2 | 0.00 | 0.00 | 0.00 | 71 | 1015.1 |
| 20260905144520 | 31 | 170 | 0.0 | 4.8 | 0.00 | 0.00 | 0.00 | 70 | 1015.1 |
| 20260905144014 | 31 | 101 | 1.6 | 4.8 | 0.00 | 0.00 | 0.00 | 73 | 1015.1 |
| 20260905143021 | 30 | 239 | 0.0 | 4.8 | 0.00 | 0.00 | 0.00 | 73 | 1015.1 |
| 20260905142509 | 30 | 192 | 3.2 | 4.8 | 0.00 | 0.00 | 0.00 | 77 | 1015.0 |
| 20260905142007 | 30 | 77 | 1.6 | 3.2 | 0.00 | 0.00 | 0.00 | 75 | 1015.2 |
| 20260905141520 | 30 | 72 | 1.6 | 3.2 | 0.00 | 0.00 | 0.00 | 77 | 1015.2 |
| 20260905141012 | 29 | 92 | 0.0 | 3.2 | 0.00 | 0.00 | 0.00 | 79 | 1015.1 |
| 20260905140504 | 28 | 57 | 0.0 | 4.8 | 0.00 | 0.00 | 0.00 | 78 | 1015.0 |
| 20260905140011 | 28 | 88 | 3.2 | 4.8 | 0.00 | 0.00 | 0.00 | 79 | 1015.1 |
| 20260905135504 | 28 | 52 | 3.2 | 4.8 | 0.00 | 0.00 | 0.00 | 83 | 1015.1 |
| 20260905135008 | 27 | 203 | 0.0 | 3.2 | 0.00 | 0.00 | 0.00 | 84 | 1015.0 |
| 20260905134518 | 27 | 203 | 0.0 | 3.2 | 0.00 | 0.00 | 0.00 | 85 | 1015.0 |
| 20260905134014 | 26 | 203 | 0.0 | 3.2 | 0.00 | 0.00 | 0.00 | 87 | 1015.1 |
| 20260905133509 | 26 | 203 | 1.6 | 3.2 | 0.00 | 0.00 | 0.00 | 89 | 1015.1 |
| 20260905133023 | 25 | 203 | 1.6 | 3.2 | 0.00 | 0.00 | 0.00 | 93 | 1015.2 |
| 20260905132511 | 25 | 225 | 1.6 | 3.2 | 0.00 | 0.00 | 0.00 | 95 | 1015.2 |
| 20260905132009 | 25 | 190 | 1.6 | 4.8 | 0.00 | 0.00 | 0.00 | 97 | 1015.2 |
| 20260905131523 | 24 | 184 | 3.2 | 4.8 | 0.00 | 0.00 | 0.00 | 97 | 1015.2 |
| 20260905131013 | 23 | 239 | 1.6 | 3.2 | 0.00 | 0.00 | 0.00 | 97 | 1015.2 |
| 20260905130509 | 23 | 239 | 0.0 | 3.2 | 0.00 | 0.00 | 0.00 | 97 | 1015.2 |
| 20260905130023 | 23 | 239 | 0.0 | 3.2 | 0.00 | 0.00 | 0.00 | 96 | 1015.2 |
| 20260905125515 | 23 | 239 | 0.0 | 3.2 | 0.00 | 0.00 | 0.00 | 96 | 1015.3 |
| 20260905125005 | 23 | 240 | 0.0 | 1.6 | 0.00 | 0.00 | 0.00 | 97 | 1015.3 |
| 20260905124517 | 23 | 239 | 0.0 | 1.6 | 0.00 | 0.00 | 0.00 | 96 | 1015.2 |
| 20260905124005 | 23 | 240 | 0.0 | 3.2 | 0.00 | 0.00 | 0.00 | 96 | 1015.2 |
| 20260905123507 | 23 | 151 | 1.6 | 3.2 | 0.00 | 0.00 | 0.00 | 96 | 1015.2 |
| 20260905123023 | 23 | 151 | 0.0 | 3.2 | 0.00 | 0.00 | 0.00 | 96 | 1015.3 |
| 20260905122512 | 23 | 151 | 0.0 | 3.2 | 0.00 | 0.00 | 0.00 | 96 | 1015.2 |
| 20260905122011 | 22 | 151 | 0.0 | 3.2 | 0.00 | 0.00 | 0.00 | 96 | 1015.2 |
| 20260905121524 | 22 | 151 | 0.0 | 3.2 | 0.00 | 0.00 | 0.00 | 96 | 1015.3 |
| 20260905121011 | 22 | 151 | 1.6 | 3.2 | 0.00 | 0.00 | 0.00 | 96 | 1015.2 |
| 20260905120510 | 22 | 34 | 0.0 | 6.4 | 0.00 | 0.00 | 0.00 | 96 | 1015.2 |
| 20260905120023 | 22 | 18 | 0.0 | 6.4 | 0.00 | 0.00 | 0.00 | 96 | 1015.1 |
| 20260905115509 | 22 | 28 | 4.8 | 6.4 | 0.00 | 0.00 | 0.00 | 96 | 1015.1 |
| 20260905115009 | 22 | 4 | 0.0 | 3.2 | 0.00 | 0.00 | 0.00 | 96 | 1015.0 |
| 20260905114523 | 22 | 4 | 0.0 | 3.2 | 0.00 | 0.00 | 0.00 | 96 | 1014.8 |
| 20260905114005 | 22 | 4 | 0.0 | 3.2 | 0.00 | 0.00 | 0.00 | 95 | 1014.7 |
| 20260905113507 | 22 | 4 | 0.0 | 3.2 | 0.00 | 0.00 | 0.00 | 95 | 1014.6 |
| 20260905113018 | 22 | 4 | 0.0 | 3.2 | 0.00 | 0.00 | 0.00 | 96 | 1014.5 |
| 20260905112510 | 22 | 4 | 0.0 | 0.0 | 0.00 | 0.00 | 0.00 | 96 | 1014.4 |
| 20260905112010 | 22 | 3 | 0.0 | 0.0 | 0.00 | 0.00 | 0.00 | 96 | 1014.5 |
| 20260905111524 | 22 | 3 | 0.0 | 0.0 | 0.00 | 0.00 | 0.00 | 96 | 1014.3 |
| 20260905111011 | 22 | 4 | 0.0 | 0.0 | 0.00 | 0.00 | 0.00 | 96 | 1014.2 |
| 20260905110512 | 22 | 4 | 0.0 | 3.2 | 0.00 | 0.00 | 0.00 | 96 | 1014.2 |
| 20260905110026 | 22 | 4 | 0.0 | 3.2 | 0.00 | 0.00 | 0.00 | 96 | 1014.2 |
| 20260905105514 | 22 | 4 | 0.0 | 3.2 | 0.00 | 0.00 | 0.00 | 96 | 1014.2 |
| 20260905105016 | 22 | 4 | 0.0 | 3.2 | 0.00 | 0.00 | 0.00 | 95 | 1014.1 |